CZ-2D R/B, 37932

Orbit data source: Space-Track

CZ-2D R/B, 37932 is space debris in SSO originally from a launch on Sun, 20 Nov 2011 UTC launched from the Jiuquan Satellite Launch Center, China (JSC). Debris objects in space refer to the collection of defunct objects orbiting the Earth. Examples of debris include non-operational satellites, rocket bodies, and fragments generated from explosions, collisions, or faulty payload assembly.

Loading next visibility...
Identifier
37932, 2011-068C
Orbit
SSO
Country
Flag of CNCN / PRC
Related business
Manufacturer
BWYIC
Mission
Spacecraft
Bus & Motor
CZ-2 STAGE 2, Unknown motor
Mass
4,006 kg wet, 4,006 kg dry
Launch date (UTC)
2011-11-20 (14 years ago)
Launch vehicle
Unknown
Launch site
Jiuquan Satellite Launch Center, China (JSC)
Object type
Payload
Rocket body
Debris
Shape & HBR
Cyl, 4.0 m
Radar Cross Section
25.456 m², Large (>1 m²)

Expand to show TLE details & history
Last TLE update: 21 hours ago

TLE from 21 hours ago
0 CZ-2D R/B
1 37932U 11068C   26094.78669498  .00000220  00000-0  11702-3 0  9996
2 37932  98.8833  49.6168 0037556 109.8833 309.2434 14.23002227746046
Epoch: 2026-04-04T18:52Z
TLE epoch observation values (Epoch: 2026-04-04T18:52:50.446Z)
Latitude
57.77522°
Longitude
-80.97373°
Altitude
807.871 km
Speed
7.464 km/s
True Right ascension
02h 21m 21s
True Declination
57° 37' 15"
Sunlit
Object was in daylight at epoch
Visualization orbit readout
Latitude
Unknown
Longitude
Unknown
Altitude
Unknown
Speed
Unknown
Apparent Right ascension
Unknown
Apparent Declination
Unknown
Sunlit
N/A
Visualization observer readout
Local Sidereal Time
21:59:14
Azimuth
Unknown
Elevation
Unknown
Doppler factor
Unknown
Orbital elements
Apogee altitude
839.385 km
Perigee altitude
785.376 km
Semi-major axis
7,190.517 km
Eccentricity
0.00376
Inclination
98.8833°
RAAN
49.6168°
Arg. of periapsis
109.8833°
True anomaly
308.90911°
Mean anomaly
309.2434°
Eccentric anomaly
309.07635°
Mean motion
3.55961 °/min
Orbital period
101.13 mins
BSTAR
0.00011702
Loading maneuver chart data...
Computing Atmospheric mass density...
Loading historical data...
Loading historical data...
Loading historical data...
Loading historical data...
Loading historical data...
Loading historical data...
Loading historical data...

Documentation

Showing up to 5 results
|